Location: Bonny Doon Airfield
(37.0704°N, 122.1252°W)
Time: 11:17:15
(UTC-08:00)

Vanguard 1 Rocket - Visible Passes

Search period start: 11 December 2017 00:00
Search period end: 21 December 2017 00:00
Orbit: 656 x 4222 km, 34.3° (Epoch: 09 December)

Date Brightness Start Highest point End Pass type
(mag) Time Alt. Az. Time Alt. Az. Time Alt. Az.
11 Dec 11.5 01:50:19 13° S 01:50:19 13° S 01:51:51 10° S visible
11 Dec 9.8 19:02:09 10° WSW 19:15:02 81° S 19:25:51 39° E visible
11 Dec 10.2 21:28:26 10° W 21:43:08 67° WSW 21:43:08 67° WSW visible
11 Dec 11.5 23:57:21 10° W 00:42:51 - SSE 00:00:24 17° W visible
12 Dec 9.6 17:51:26 10° WSW 18:01:56 73° SSE 18:18:37 18° E visible
12 Dec 10.0 20:16:41 10° W 20:32:02 80° S 20:35:54 68° SE visible
12 Dec 10.9 22:44:03 10° W 22:53:11 37° W 22:53:11 37° W visible
13 Dec 11.7 01:52:34 10° S 01:52:34 10° S 01:10:28 - WNW visible
13 Dec 9.7 19:05:28 10° W 19:18:06 81° S 19:28:43 39° E visible
13 Dec 10.3 21:31:41 10° W 21:46:00 63° WSW 21:46:00 63° WSW visible
14 Dec 11.5 00:00:53 10° W 00:44:58 - SSE 00:03:17 15° W visible
14 Dec 9.5 17:54:42 10° WSW 18:04:59 77° S 18:21:34 18° E visible
14 Dec 10.0 20:20:00 10° W 20:34:59 76° SSW 20:38:52 66° SE visible
14 Dec 10.9 22:47:23 10° W 22:56:09 34° W 22:56:09 34° W visible
15 Dec 9.7 19:08:48 10° W 19:21:10 80° S 19:31:47 39° ESE visible
15 Dec 10.3 21:34:58 10° W 21:49:05 59° SW 21:49:05 59° SW visible
16 Dec 11.6 00:04:45 10° W 00:46:45 - SSE 00:06:23 13° W visible
16 Dec 9.4 17:58:03 10° W 18:08:07 80° S 18:24:46 17° E visible
16 Dec 10.0 20:23:19 10° W 20:37:54 71° SSW 20:42:04 62° SSE visible
16 Dec 11.0 22:50:52 10° W 22:59:23 31° WSW 22:59:23 31° WSW visible
17 Dec 9.7 19:12:10 10° W 19:24:15 78° S 19:35:09 37° ESE visible
17 Dec 10.4 21:38:20 10° W 21:52:28 53° SW 21:52:28 53° SW visible
18 Dec 11.6 00:09:08 10° W 00:48:09 - S 00:09:47 11° W visible
18 Dec 9.4 18:01:25 10° W 18:11:16 80° S 18:28:19 16° E visible
18 Dec 10.0 20:26:39 10° W 20:40:48 65° SSW 20:45:39 55° SSE visible
18 Dec 11.1 22:54:36 10° W 23:02:58 28° WSW 23:02:58 28° WSW visible
19 Dec 9.7 19:15:32 10° W 19:27:18 73° SSW 19:38:56 33° ESE visible
19 Dec 10.5 21:41:49 10° W 21:56:17 47° SW 21:56:17 47° SW visible
20 Dec11.700:49:06S00:49:06S00:13:38Wvisible
20 Dec 9.4 18:04:48 10° W 18:14:25 78° S 18:32:23 13° ESE visible
20 Dec 10.2 20:30:03 10° W 20:43:42 57° SSW 20:49:44 47° SSE visible
20 Dec 11.2 22:58:43 10° W 23:40:46 - SSE 23:07:06 25° WSW visible
